SCP
0 0 0 0 0 0 0 0 0 0 0 0 0 0 0 0 0 0 0 0 0 0 0 0 0 0 0 0 0 0 0 0 0 0 0 0 0 0 0 0 0 0 0
0 0 0 0 0 0 0 0 0 0 0 0 0 0 0 0 0 0 0 0 0 0 0 0 0 0 0 0 0 0 0 0 0 0 0 0 0 0 0 0 0 0 0
0 0 0 0 0 0 0 0 0 0 0 0 0 0 0 0 0 0 0 0 0 0 0 0 0 0 0 0 0 0 0 0 0 0 0 0 0 0 0 0 0 0 0
0 0 0 0 0 0 0 0 0 0 0 0 0 0 0 0 0 0 0 0 0 0 0 0 0 0 0 0 0 0 0 0 0 0 0 0 0 0 0 0 0 0 0
0 0 0 0 0 0 0 0 0 0 0 0 0 0 0 0 0 0 0 0 0 0 0 0 0 0 0 0 0 0 0 0 0 0 0 0 0 0 0 0 0 0 0
0 0 0 0 0 0 0 0 0 0 0 0 0 0 0 0 0 0 0 0 0 0 0 0 0 0 0 0 0 0 0 0 0 0 0 0 0 0 0 0 0 0 0
0 0 0 0 0 0 0 0 0 0 0 0 0 0 0 0 0 0 0 0 0 0 0 0 0 0 0 0 0 0 0 0 0 0 0 0 0 0 0 0 0 0 0
0 0 0 0 0 0 -0 0 0 0 0 0 0 0 0 0 0 0 0 0 0 0 0 0 0 0 0 0 0 0 0 0 0 0 0 0 0 0 0 0 0 0 0
0 0 0 0 -0 -0 -0 -0 0 0 0 0 0 0 0 0 0 0 0 0 0 0 0 0 0 0 0 0 0 0 0 0 0 0 0 0 0 0 0 0 0 0 0
0 -0 -0 -0 0 0 0 -0 0 0 0 0 0 0 0 0 0 0 0 0 0 0 0 0 0 0 0 0 0 0 0 0 0 0 0 0 0 0 0 0 0 0 0
0 0 0 0 0 0 0 0 0 0 0 0 0 0 0 0 0 0 0 0 0 0 0 0 0 0 0 0 0 0 0 0 0 0 0 0 0 0 0 0 0 0 0
0 0 0 0 0 0 0 0 0 0 0 0 0 0 0 0 0 0 0 0 0 0 0 0 0 0 0 0 0 0 0 0 0 0 0 0 0 0 0 0 0 0 0
0 0 0 0 0 0 0 0 0 0 0 0 0 0 0 0 0 0 0 0 0 0 0 0 0 0 0 0 0 0 0 0 -0 -0 0 0 0 0 0 0 0 0 0
0 0 0 0 0 0 0 0 0 0 0 0 0 0 0 0 0 0 0 0 0 0 0 0 0 0 0 0 0 0 0 0 0 0 -0 -0 -0 0 0 0 0 0 0
0 0 0 0 0 0 0 0 0 0 0 0 0 0 0 0 0 0 0 0 0 0 0 0 0 0 0 0 0 0 0 -0 -0 -0 -0 -0 -0 -0 -0 -0 0 0 0
0 0 0 0 0 -0 -0 -0 0 0 0 0 0 0 0 0 0 0 0 0 0 0 0 0 0 0 0 0 0 -0 0 -0 -0 -0 -0 -0 -0 -0 -0 -0 -0 -0 0
-0 0 -0 -0 -0 0 0 0 0 -0 0 0 0 0 0 0 0 0 0 0 0 0 0 0 0 0 0 0 -0 0 -0 0 0 -0 -0 0 -0 -0 -0 -0 -0 -0 -0
0 -0 0 -0 -0 -0 -0 0 0 -0 0 0 0 -0 -0 -0 0 0 0 -0 0 0 0 0 0 -0 -0 0 0 -0 -0 -0 -0 -0 -0 -0 -0 0 0 -0 -0 -0 -0
-0 0 -0 -0 -0 -0 0 0 0 0 0 0 0 -0 -0 0 -0 0 -0 -0 0 0 0 0 0 0 0 0 0 -0 -0 -0 0 -0 -0 -0 -0 -0 -0 -0 0 0 0
0 0 0 -0 -0 -0 0 0 0 0 0 0 -0 -0 -0 0 -0 -0 0 -0 0 0 0 0 0 0 0 0 0 0 0 0 0 -0 -0 -0 -0 -0 -0 -0 0 0 0
0 0 0 0 0 -0 0 0 0 0 0 0 0 -0 -0 -0 0 -0 0 0 0 0 0 0 0 0 0 0 0 0 0 0 0 0 0 0 0 0 0 0 0 0 0
0 0 0 0 0 0 0 0 0 0 0 0 0 0 0 0 0 0 0 0 0 0 0 0 0 0 0 0 0 0 0 0 0 0 0 0 0 0 0 0 0 0 0
0 0 0 0 0 0 0 0 0 0 0 0 0 0 0 0 0 0 0 0 0 0 0 0 0 0 0 0 0 0 0 0 0 0 0 0 0 0 0 0 0 0 0
0 0 0 0 0 0 0 0 0 0 0 0 0 0 0 0 0 0 0 0 0 0 0 0 0 0 0 0 0 0 0 0 0 0 0 0 0 0 0 0 0 0 0
0 0 0 0 0 0 0 0 0 0 0 0 0 0 0 0 0 0 0 0 0 0 0 0 0 0 0 0 0 0 0 0 0 0 0 0 0 0 0 0 0 0 0
0 0 0 0 0 0 0 0 0 0 0 0 0 0 0 0 0 0 0 0 0 0 0 0 0 0 0 0 0 0 0 0 0 0 0 0 0 0 0 0 0 0 0
Wind_Speed_500mb
40 43 37 48 38 30 24 37 43 37 26 20 26 19 18 33 23 21 22 35 40 39 30 21 7 6 12 15 20 26 29 30 30 29 27 21 17 19 19 19 22 24 24
44 48 48 52 49 51 57 55 53 57 37 45 33 29 23 24 26 29 23 29 36 33 32 18 18 23 24 23 23 26 28 26 17 15 14 16 19 21 23 23 21 20 21
34 35 38 43 48 51 57 52 49 44 39 39 43 31 37 30 20 25 31 28 31 34 24 20 15 18 24 31 30 26 29 22 18 20 18 18 18 18 20 23 24 26 26
25 26 30 33 35 35 33 27 40 42 37 39 30 32 35 27 20 21 28 15 18 23 23 20 17 23 25 23 26 30 28 20 19 21 23 22 22 24 26 26 27 28 30
31 31 31 27 30 31 36 39 41 36 39 34 35 23 24 18 14 18 13 23 22 16 13 21 15 24 34 29 19 25 25 19 17 17 21 22 23 26 28 30 31 27 29
19 23 30 32 39 33 37 39 35 30 32 27 22 30 24 19 16 20 14 8 10 9 15 11 22 31 29 22 19 23 25 22 23 26 22 23 29 34 36 34 34 31 30
24 29 35 32 29 29 32 33 33 31 27 18 14 15 19 24 30 29 16 18 21 16 20 31 23 26 26 22 19 14 21 22 17 23 26 29 35 38 37 37 36 33 32
30 35 31 32 31 33 34 30 35 36 31 22 25 22 26 7 21 21 12 17 18 16 19 21 23 19 21 25 26 15 17 21 21 21 22 32 33 28 27 29 28 27 30
32 26 31 31 31 33 31 32 34 28 25 20 23 17 7 2 6 10 15 13 14 8 13 21 24 29 16 22 28 31 27 30 27 25 26 29 31 25 25 28 22 24 22
28 29 34 26 31 31 31 33 29 23 18 20 18 28 19 19 3 4 10 20 17 15 18 13 23 25 17 12 22 28 28 29 34 32 28 25 25 23 24 27 22 22 26
23 27 30 24 26 27 24 22 20 15 14 17 16 18 20 15 9 9 9 16 12 22 13 14 21 24 14 19 23 24 30 30 30 27 26 26 29 29 23 24 23 22 22
24 29 29 27 22 20 18 16 15 14 15 18 16 14 13 12 6 6 8 11 12 9 12 16 9 14 16 22 28 25 35 34 28 25 24 23 25 23 22 18 20 19 20
30 29 24 20 15 14 15 14 11 10 10 10 11 8 7 3 1 5 8 6 8 11 13 14 14 28 28 32 30 23 27 29 29 24 18 19 19 22 21 20 21 22 22
25 26 19 12 13 14 16 18 16 9 5 6 3 4 10 6 4 10 4 4 16 9 7 13 22 22 30 25 22 27 24 30 21 11 10 14 20 24 23 23 24 26 27
20 17 14 13 15 12 15 22 25 15 15 13 10 11 14 1 3 3 5 4 15 13 15 13 10 21 26 24 27 24 22 13 6 11 13 19 20 22 23 26 28 30 31
15 18 20 14 11 15 14 19 28 20 21 18 16 17 9 3 9 13 9 8 15 12 8 14 16 30 24 28 29 23 2 18 18 19 19 22 24 26 29 32 35 38 41
18 21 21 22 22 12 13 18 24 23 23 25 22 18 19 19 10 5 7 11 5 3 9 19 25 24 22 26 22 5 13 15 15 12 17 20 22 25 32 35 39 40 42
17 17 14 13 15 15 13 14 7 8 12 18 21 17 7 2 8 13 10 10 6 12 16 21 14 21 22 17 8 14 13 7 13 12 14 17 19 22 28 34 38 42 44
16 17 18 18 17 15 8 5 5 5 7 4 9 10 14 10 13 15 14 12 10 17 15 16 18 21 19 14 11 14 12 8 11 15 19 19 23 17 21 31 38 40 41
21 22 20 14 16 17 11 10 7 4 3 5 5 6 10 18 14 8 9 11 11 8 13 18 18 18 20 16 19 23 19 19 22 13 14 25 18 18 14 16 27 37 39
20 18 16 18 16 16 17 7 12 8 8 8 8 14 17 15 16 17 16 16 15 10 17 20 20 12 14 17 18 17 20 20 15 15 16 20 22 22 14 14 17 31 39
26 16 15 19 14 16 17 13 10 4 11 11 6 13 21 21 22 23 27 24 17 18 17 21 23 21 20 17 19 21 19 23 18 7 12 19 25 27 17 18 24 24 32
29 30 30 27 25 24 23 23 28 22 23 27 19 22 19 21 22 24 28 29 33 28 28 28 25 23 20 24 30 21 28 26 16 10 21 20 21 31 19 14 17 18 24
37 37 38 35 30 35 35 33 36 34 29 29 28 32 28 27 27 27 23 25 24 30 31 30 27 20 17 18 22 28 26 26 13 15 22 19 21 34 15 15 10 14 14
40 45 38 39 32 34 31 34 39 44 45 47 38 36 31 26 25 26 23 20 21 22 20 17 21 9 15 19 24 28 26 28 24 19 23 22 29 27 25 24 9 19 13
27 28 44 53 36 35 32 32 36 35 23 21 34 32 30 31 32 32 32 26 21 23 25 19 20 21 15 29 18 22 27 24 25 29 26 27 26 33 27 8 12 34 16
Wind_Direction_500mb
256 268 271 287 290 280 276 274 266 250 256 295 324 296 313 301 309 303 292 302 305 315 333 328 267 218 275 300 315 312 310 308 300 295 296 297 296 299 301 306 307 304 297
271 269 262 270 272 276 284 280 272 267 275 302 307 282 268 284 295 299 301 292 303 309 320 332 316 295 299 307 311 313 316 318 314 296 290 290 301 301 298 297 296 301 300
283 279 275 272 273 278 276 277 281 298 285 290 280 271 258 264 272 290 281 293 313 307 307 306 302 308 319 311 306 308 313 315 301 295 296 299 305 309 306 301 293 289 286
321 313 307 301 294 293 285 267 277 289 280 283 285 273 265 286 268 284 298 284 252 307 306 303 314 317 317 310 299 302 306 310 290 290 295 301 306 311 311 305 300 296 294
336 341 338 331 324 311 300 295 292 291 280 289 285 273 263 266 269 273 257 283 312 286 333 295 330 326 310 311 298 294 305 300 301 304 303 307 311 315 318 315 311 311 299
333 325 319 318 308 309 311 308 307 293 284 279 259 281 266 254 268 247 277 247 277 268 309 351 331 315 310 307 312 308 298 290 293 309 318 313 312 312 311 312 311 307 293
310 311 298 287 287 293 303 306 294 287 285 261 261 276 292 270 248 252 249 260 261 275 284 289 302 295 304 322 321 314 301 300 320 306 309 310 313 310 311 307 303 303 297
316 319 303 291 289 291 290 295 296 292 265 235 249 276 289 255 209 229 228 256 256 275 298 297 302 300 288 281 311 299 306 297 307 307 312 311 312 319 327 321 315 300 294
311 320 306 298 286 284 289 290 298 296 264 230 248 259 312 263 323 244 244 240 262 271 301 318 299 302 308 268 275 278 295 304 298 304 302 306 312 318 321 319 305 292 293
333 320 303 312 301 299 293 289 299 296 274 251 261 236 252 267 263 196 240 207 244 306 296 307 283 283 296 301 274 280 288 291 296 295 298 306 309 317 321 323 327 308 296
331 311 323 312 318 311 309 301 306 302 276 261 260 280 282 242 235 252 246 229 245 248 253 299 300 286 296 300 286 290 296 305 302 307 309 307 314 310 311 322 324 328 317
305 318 319 320 317 325 330 336 334 308 284 272 271 265 277 274 272 247 270 280 267 263 250 287 270 276 290 291 295 298 304 306 319 318 320 316 319 320 316 333 336 334 329
324 335 339 340 342 357 5 354 343 331 316 292 258 258 289 161 116 252 280 269 264 255 257 252 263 276 306 300 292 305 296 302 321 325 328 326 333 332 332 338 345 346 340
325 331 345 359 13 28 17 16 344 335 329 353 30 239 112 69 247 287 293 280 325 274 294 285 281 295 318 318 316 313 302 301 308 329 325 344 345 344 349 357 359 357 355
339 10 23 20 36 39 29 19 25 37 69 87 94 141 129 307 336 8 350 10 312 314 317 333 303 302 323 330 313 310 308 313 55 57 15 360 358 2 13 19 16 9 360
33 57 43 45 58 61 45 39 42 60 61 73 79 80 105 54 45 17 37 356 302 304 320 313 326 323 329 331 329 326 355 106 69 39 36 30 26 28 28 26 20 16 12
53 67 50 36 40 47 39 37 38 36 48 46 52 58 57 39 32 357 325 300 334 284 304 294 313 333 328 324 337 56 103 63 40 26 19 13 17 13 18 18 15 10 7
51 42 43 30 23 32 25 38 37 37 30 31 20 29 83 23 342 356 346 7 319 318 341 346 354 357 355 354 66 79 82 41 317 334 341 337 345 346 356 0 4 5 0
44 39 17 27 27 9 347 66 39 350 9 37 11 350 356 352 331 332 357 3 358 20 48 43 10 1 38 69 76 60 26 350 346 335 349 327 341 345 352 13 17 8 2
42 36 34 16 37 359 16 102 81 61 47 11 353 324 330 339 336 342 12 39 55 65 28 14 17 34 49 47 31 20 11 352 357 334 348 360 343 2 19 4 6 11 8
39 48 48 44 57 12 46 64 78 92 112 103 47 19 13 31 62 65 69 63 70 37 14 21 21 28 5 352 358 335 336 337 310 6 351 327 318 326 358 333 332 6 16
35 35 47 42 35 38 45 58 74 56 89 96 60 60 67 62 72 67 54 41 35 40 55 41 38 31 28 17 3 356 352 357 338 262 353 342 339 349 326 336 1 354 23
53 57 59 58 50 55 59 68 76 76 85 91 74 71 62 63 66 71 64 50 53 53 49 42 32 22 27 19 15 12 4 0 347 355 353 350 340 355 285 297 337 10 31
55 55 49 49 64 65 70 87 89 81 73 67 66 72 61 74 62 59 66 62 30 23 27 23 11 4 16 4 7 10 360 1 21 17 353 326 335 358 316 347 308 310 7
39 36 45 46 80 73 73 80 80 76 66 59 57 68 78 72 54 50 54 57 38 20 358 32 50 13 34 8 8 8 10 8 4 331 1 350 350 321 346 304 282 301 284
37 46 52 62 72 72 69 61 59 61 56 60 47 52 51 47 45 45 40 37 30 11 37 26 19 1 350 14 342 355 360 345 348 342 333 344 341 345 346 344 287 338 312
Wind_Speed_850mb
40 43 37 48 38 30 24 37 43 37 26 20 26 19 18 33 23 21 22 35 40 39 30 21 7 6 12 15 20 26 29 30 30 29 27 21 17 19 19 19 22 24 24
44 48 48 52 49 51 57 55 53 57 37 45 33 29 23 24 26 29 23 29 36 33 32 18 18 23 24 23 23 26 28 26 17 15 14 16 19 21 23 23 21 20 21
34 35 38 43 48 51 57 52 49 44 39 39 43 31 37 30 20 25 31 28 31 34 24 20 15 18 24 31 30 26 29 22 18 20 18 18 18 18 20 23 24 26 26
25 26 30 33 35 35 33 27 40 42 37 39 30 32 35 27 20 21 28 15 18 23 23 20 17 23 25 23 26 30 28 20 19 21 23 22 22 24 26 26 27 28 30
31 31 31 27 30 31 36 39 41 36 39 34 35 23 24 18 14 18 13 23 22 16 13 21 15 24 34 29 19 25 25 19 17 17 21 22 23 26 28 30 31 27 29
19 23 30 32 39 33 37 39 35 30 32 27 22 30 24 19 16 20 14 8 10 9 15 11 22 31 29 22 19 23 25 22 23 26 22 23 29 34 36 34 34 31 30
24 29 35 32 29 29 32 33 33 31 27 18 14 15 19 24 30 29 16 18 21 16 20 31 23 26 26 22 19 14 21 22 17 23 26 29 35 38 37 37 36 33 32
30 35 31 32 31 33 34 30 35 36 31 22 25 22 26 7 21 21 12 17 18 16 19 21 23 19 21 25 26 15 17 21 21 21 22 32 33 28 27 29 28 27 30
32 26 31 31 31 33 31 32 34 28 25 20 23 17 7 2 6 10 15 13 14 8 13 21 24 29 16 22 28 31 27 30 27 25 26 29 31 25 25 28 22 24 22
28 29 34 26 31 31 31 33 29 23 18 20 18 28 19 19 3 4 10 20 17 15 18 13 23 25 17 12 22 28 28 29 34 32 28 25 25 23 24 27 22 22 26
23 27 30 24 26 27 24 22 20 15 14 17 16 18 20 15 9 9 9 16 12 22 13 14 21 24 14 19 23 24 30 30 30 27 26 26 29 29 23 24 23 22 22
24 29 29 27 22 20 18 16 15 14 15 18 16 14 13 12 6 6 8 11 12 9 12 16 9 14 16 22 28 25 35 34 28 25 24 23 25 23 22 18 20 19 20
30 29 24 20 15 14 15 14 11 10 10 10 11 8 7 3 1 5 8 6 8 11 13 14 14 28 28 32 30 23 27 29 29 24 18 19 19 22 21 20 21 22 22
25 26 19 12 13 14 16 18 16 9 5 6 3 4 10 6 4 10 4 4 16 9 7 13 22 22 30 25 22 27 24 30 21 11 10 14 20 24 23 23 24 26 27
20 17 14 13 15 12 15 22 25 15 15 13 10 11 14 1 3 3 5 4 15 13 15 13 10 21 26 24 27 24 22 13 6 11 13 19 20 22 23 26 28 30 31
15 18 20 14 11 15 14 19 28 20 21 18 16 17 9 3 9 13 9 8 15 12 8 14 16 30 24 28 29 23 2 18 18 19 19 22 24 26 29 32 35 38 41
18 21 21 22 22 12 13 18 24 23 23 25 22 18 19 19 10 5 7 11 5 3 9 19 25 24 22 26 22 5 13 15 15 12 17 20 22 25 32 35 39 40 42
17 17 14 13 15 15 13 14 7 8 12 18 21 17 7 2 8 13 10 10 6 12 16 21 14 21 22 17 8 14 13 7 13 12 14 17 19 22 28 34 38 42 44
16 17 18 18 17 15 8 5 5 5 7 4 9 10 14 10 13 15 14 12 10 17 15 16 18 21 19 14 11 14 12 8 11 15 19 19 23 17 21 31 38 40 41
21 22 20 14 16 17 11 10 7 4 3 5 5 6 10 18 14 8 9 11 11 8 13 18 18 18 20 16 19 23 19 19 22 13 14 25 18 18 14 16 27 37 39
20 18 16 18 16 16 17 7 12 8 8 8 8 14 17 15 16 17 16 16 15 10 17 20 20 12 14 17 18 17 20 20 15 15 16 20 22 22 14 14 17 31 39
26 16 15 19 14 16 17 13 10 4 11 11 6 13 21 21 22 23 27 24 17 18 17 21 23 21 20 17 19 21 19 23 18 7 12 19 25 27 17 18 24 24 32
29 30 30 27 25 24 23 23 28 22 23 27 19 22 19 21 22 24 28 29 33 28 28 28 25 23 20 24 30 21 28 26 16 10 21 20 21 31 19 14 17 18 24
37 37 38 35 30 35 35 33 36 34 29 29 28 32 28 27 27 27 23 25 24 30 31 30 27 20 17 18 22 28 26 26 13 15 22 19 21 34 15 15 10 14 14
40 45 38 39 32 34 31 34 39 44 45 47 38 36 31 26 25 26 23 20 21 22 20 17 21 9 15 19 24 28 26 28 24 19 23 22 29 27 25 24 9 19 13
27 28 44 53 36 35 32 32 36 35 23 21 34 32 30 31 32 32 32 26 21 23 25 19 20 21 15 29 18 22 27 24 25 29 26 27 26 33 27 8 12 34 16
Wind_Direction_850mb
256 268 271 287 290 280 276 274 266 250 256 295 324 296 313 301 309 303 292 302 305 315 333 328 267 218 275 300 315 312 310 308 300 295 296 297 296 299 301 306 307 304 297
271 269 262 270 272 276 284 280 272 267 275 302 307 282 268 284 295 299 301 292 303 309 320 332 316 295 299 307 311 313 316 318 314 296 290 290 301 301 298 297 296 301 300
283 279 275 272 273 278 276 277 281 298 285 290 280 271 258 264 272 290 281 293 313 307 307 306 302 308 319 311 306 308 313 315 301 295 296 299 305 309 306 301 293 289 286
321 313 307 301 294 293 285 267 277 289 280 283 285 273 265 286 268 284 298 284 252 307 306 303 314 317 317 310 299 302 306 310 290 290 295 301 306 311 311 305 300 296 294
336 341 338 331 324 311 300 295 292 291 280 289 285 273 263 266 269 273 257 283 312 286 333 295 330 326 310 311 298 294 305 300 301 304 303 307 311 315 318 315 311 311 299
333 325 319 318 308 309 311 308 307 293 284 279 259 281 266 254 268 247 277 247 277 268 309 351 331 315 310 307 312 308 298 290 293 309 318 313 312 312 311 312 311 307 293
310 311 298 287 287 293 303 306 294 287 285 261 261 276 292 270 248 252 249 260 261 275 284 289 302 295 304 322 321 314 301 300 320 306 309 310 313 310 311 307 303 303 297
316 319 303 291 289 291 290 295 296 292 265 235 249 276 289 255 209 229 228 256 256 275 298 297 302 300 288 281 311 299 306 297 307 307 312 311 312 319 327 321 315 300 294
311 320 306 298 286 284 289 290 298 296 264 230 248 259 312 263 323 244 244 240 262 271 301 318 299 302 308 268 275 278 295 304 298 304 302 306 312 318 321 319 305 292 293
333 320 303 312 301 299 293 289 299 296 274 251 261 236 252 267 263 196 240 207 244 306 296 307 283 283 296 301 274 280 288 291 296 295 298 306 309 317 321 323 327 308 296
331 311 323 312 318 311 309 301 306 302 276 261 260 280 282 242 235 252 246 229 245 248 253 299 300 286 296 300 286 290 296 305 302 307 309 307 314 310 311 322 324 328 317
305 318 319 320 317 325 330 336 334 308 284 272 271 265 277 274 272 247 270 280 267 263 250 287 270 276 290 291 295 298 304 306 319 318 320 316 319 320 316 333 336 334 329
324 335 339 340 342 357 5 354 343 331 316 292 258 258 289 161 116 252 280 269 264 255 257 252 263 276 306 300 292 305 296 302 321 325 328 326 333 332 332 338 345 346 340
325 331 345 359 13 28 17 16 344 335 329 353 30 239 112 69 247 287 293 280 325 274 294 285 281 295 318 318 316 313 302 301 308 329 325 344 345 344 349 357 359 357 355
339 10 23 20 36 39 29 19 25 37 69 87 94 141 129 307 336 8 350 10 312 314 317 333 303 302 323 330 313 310 308 313 55 57 15 360 358 2 13 19 16 9 360
33 57 43 45 58 61 45 39 42 60 61 73 79 80 105 54 45 17 37 356 302 304 320 313 326 323 329 331 329 326 355 106 69 39 36 30 26 28 28 26 20 16 12
53 67 50 36 40 47 39 37 38 36 48 46 52 58 57 39 32 357 325 300 334 284 304 294 313 333 328 324 337 56 103 63 40 26 19 13 17 13 18 18 15 10 7
51 42 43 30 23 32 25 38 37 37 30 31 20 29 83 23 342 356 346 7 319 318 341 346 354 357 355 354 66 79 82 41 317 334 341 337 345 346 356 0 4 5 0
44 39 17 27 27 9 347 66 39 350 9 37 11 350 356 352 331 332 357 3 358 20 48 43 10 1 38 69 76 60 26 350 346 335 349 327 341 345 352 13 17 8 2
42 36 34 16 37 359 16 102 81 61 47 11 353 324 330 339 336 342 12 39 55 65 28 14 17 34 49 47 31 20 11 352 357 334 348 360 343 2 19 4 6 11 8
39 48 48 44 57 12 46 64 78 92 112 103 47 19 13 31 62 65 69 63 70 37 14 21 21 28 5 352 358 335 336 337 310 6 351 327 318 326 358 333 332 6 16
35 35 47 42 35 38 45 58 74 56 89 96 60 60 67 62 72 67 54 41 35 40 55 41 38 31 28 17 3 356 352 357 338 262 353 342 339 349 326 336 1 354 23
53 57 59 58 50 55 59 68 76 76 85 91 74 71 62 63 66 71 64 50 53 53 49 42 32 22 27 19 15 12 4 0 347 355 353 350 340 355 285 297 337 10 31
55 55 49 49 64 65 70 87 89 81 73 67 66 72 61 74 62 59 66 62 30 23 27 23 11 4 16 4 7 10 360 1 21 17 353 326 335 358 316 347 308 310 7
39 36 45 46 80 73 73 80 80 76 66 59 57 68 78 72 54 50 54 57 38 20 358 32 50 13 34 8 8 8 10 8 4 331 1 350 350 321 346 304 282 301 284
37 46 52 62 72 72 69 61 59 61 56 60 47 52 51 47 45 45 40 37 30 11 37 26 19 1 350 14 342 355 360 345 348 342 333 344 341 345 346 344 287 338 312